Regional Weather Roundup
Issued by NWS Sioux Falls, SD

Home | Current Version | Previous Version | Text Only | Print | Product List | Glossary Off
Versions: 1 2 3 4 5 6 7 8 9 10 11 12 13 14 15 16 17 18 19 20 21 22 23 24 25 26 27 28 29 30 31 32 33 34 35 36 37 38 39 40 41 42 43 44 45 46 47 48 49 50

000
ASUS43 KFSD 230510
RWRFSD

WEATHER ROUNDUP FOR SE SOUTH DAKOTA/SW MINNESOTA/NW IOWA
NATIONAL WEATHER SERVICE SIOUX FALLS SD
1200 AM CDT SAT MAY 23 2015

NOTE: "FAIR" INDICATES FEW OR NO CLOUDS BELOW 12,000 FEET WITH NO
SIGNIFICANT WEATHER AND OR OBSTRUCTIONS TO VISIBILITY.


SDZ038>040-050-052>070-230600-
SOUTHEAST SOUTH DAKOTA

CITY           SKY/WX    TMP DP  RH WIND       PRES   REMARKS
BROOKINGS      PTCLDY    54  43  66 CALM      30.22S
CHAMBERLAIN    CLOUDY    50  42  73 S5        30.17F
HURON          PTCLDY    53  42  66 CALM      30.18F
MADISON        CLOUDY    50  43  76 E3        30.20F
MITCHELL       CLOUDY    55  45  68 SW3       30.20R
SIOUX FALLS    CLOUDY    56  46  69 E5        30.19S
WINNER         CLOUDY    51  43  74 SE7       30.16F
YANKTON        CLOUDY    55  45  67 E6        30.19F
$$

MNZ071-072-080-081-089-090-097-098-230600-
SOUTHWEST MINNESOTA

CITY           SKY/WX    TMP DP  RH WIND       PRES   REMARKS
FAIRMONT       PTCLDY    61  39  44 W9        30.22R
JACKSON        MOCLDY    55  45  67 W5        30.22F
LUVERNE        CLOUDY    59  45  58 CALM      30.21S
MARSHALL       PTCLDY    57  39  51 W9        30.20S
MONTEVIDEO     CLEAR     61  45  55 W8        30.20R
REDWOOD FALLS  PTCLDY    62  42  47 W13       30.19R
TRACY          MOCLDY    59  44  57 W9        30.21S
WINDOM         PTCLDY    55  43  62 CALM      30.22S
WORTHINGTON    CLOUDY    55  39  54 CALM      30.21F
$$

IAZ001>003-012>014-020>022-031-032-NEZ013-014-SDZ071-230600-
NORTHWEST IOWA

CITY           SKY/WX    TMP DP  RH WIND       PRES   REMARKS
CHEROKEE       CLOUDY    56  48  73 S3        30.20F
DENISON        CLOUDY    59  46  63 SE6G12    30.19S
ESTHERVILLE    MOCLDY    57  42  57 W5        30.21F
LE MARS        DRIZZLE   59  48  67 S5        30.21S
ORANGE CITY    CLOUDY    61  43  51 S12       30.20S
SHELDON        CLOUDY    57  45  62 CALM      30.19S
SIOUX CITY     CLOUDY    57  49  74 E7        30.18F
SPENCER        CLOUDY    56  48  74 NE3       30.21F
STORM LAKE     CLOUDY    61  45  55 S15       30.22S
$$

ABBREVIATIONS USED IN REMARKS
   TC - TEMPERATURE IN CELSIUS
  WCI - WIND CHILL INDEX
   HX - HEAT INDEX
  VSB - VISIBILITY



USA.gov is the U.S. government's official web portal to all federal, state and local government web resources and services.